Terminal Aerodrome Forecast
Issued by NWS Denver/Boulder, CO

Home | Current Version | Previous Version | Text Only | Print | Product List | Glossary On
Versions: 1 2 3 4 5 6 7 8 9 10 11 12 13 14 15 16 17 18 19 20 21 22 23 24 25 26 27 28 29 30 31 32 33 34 35 36 37 38 39 40 41 42 43 44 45 46 47 48 49 50
000
FTUS45 KBOU 021055 AAC
TAFDEN
TAF AMD
KDEN 021055Z 0211/0312 36014KT P6SM SCT080 BKN140
     FM021105 05015G28KT P6SM VCSH SCT030 SCT080 BKN140
     FM021300 05012G20KT P6SM VCSH SCT010 BKN030 BKN080
     FM021600 05010KT P6SM SCT030 SCT080 BKN140
     FM021800 06008KT P6SM SCT080 BKN140
     FM022000 06011KT P6SM SCT080 BKN120
      TEMPO 0221/0301 VRB20G32KT -TSRA BKN070CB
     FM030300 15008KT P6SM SCT080 BKN140
     FM030600 22009KT P6SM SCT120 BKN200=

USA.gov is the U.S. government's official web portal to all federal, state and local government web resources and services.